Temperature
24 25 24 24 24 24 24 24 24 25 24 24 24 24 23 22 21 21 21 21 20 20 20 20 19 20 21 21 22 22 21 20 20 19 19 19 18 18 18 18 18 18 17 17
25 24 23 23 23 24 24 23 24 24 24 24 24 24 23 22 21 20 20 20 20 19 19 19 19 20 20 21 21 22 21 21 20 20 20 19 19 18 18 18 18 18 18 17
24 23 23 23 23 23 23 23 22 22 23 23 23 23 23 22 21 20 19 19 19 18 18 18 18 19 19 20 21 21 21 21 20 20 20 20 19 19 19 18 18 18 18 18
23 23 23 23 22 22 22 22 21 21 22 23 23 23 23 22 21 20 19 19 18 17 17 17 17 18 18 19 20 21 21 20 20 20 20 20 19 18 18 18 18 18 18 18
22 22 22 21 21 21 21 21 21 21 22 22 23 22 23 21 20 19 19 18 18 17 16 16 16 16 17 18 19 20 20 20 19 19 19 19 18 18 17 17 17 17 17 17
22 21 21 21 21 20 21 21 22 21 21 21 22 22 21 18 17 18 18 18 17 17 16 16 15 16 16 17 18 18 19 19 18 18 18 18 17 17 16 16 17 17 17 17
22 21 20 20 20 21 20 20 20 20 20 20 21 20 17 16 17 17 17 17 16 16 16 15 15 15 15 16 16 17 17 17 17 17 16 17 16 16 16 16 16 16 16 17
21 20 19 19 19 18 19 18 17 17 18 19 19 18 15 16 16 16 16 16 16 16 15 15 14 14 15 15 15 15 16 16 15 15 15 15 16 15 15 15 16 16 16 16
20 19 19 18 18 18 18 18 17 17 17 17 18 16 16 16 16 15 15 15 14 15 14 14 14 14 14 14 14 14 15 14 14 14 14 14 14 15 15 15 16 16 16 16
20 19 18 18 18 18 17 16 16 16 15 16 17 15 13 13 13 14 14 13 13 13 13 13 13 13 13 14 14 14 14 14 14 14 14 14 14 15 15 15 16 16 16 16
19 19 18 18 16 15 15 14 15 15 15 14 15 13 12 11 11 12 12 12 12 12 12 12 13 13 13 13 13 14 14 14 14 14 15 15 15 15 15 15 15 16 16 16
18 19 18 16 16 15 14 13 13 13 14 14 13 12 11 11 11 11 11 11 11 11 11 12 12 13 13 13 13 14 14 14 14 15 15 15 15 15 15 15 15 16 16 16
18 18 18 17 16 15 14 13 13 13 13 13 12 11 12 11 11 11 10 11 11 11 11 11 12 12 13 13 13 14 14 14 15 15 15 15 15 15 15 15 15 15 15 15
17 17 16 14 13 13 13 13 14 13 12 11 10 11 11 11 11 10 10 11 11 11 11 11 11 12 12 12 13 13 14 14 14 15 15 15 15 15 15 15 15 16 15 15
18 17 15 14 14 14 13 13 13 12 11 11 10 11 10 10 11 11 11 11 11 11 11 11 11 11 12 12 12 12 13 13 14 14 14 15 15 15 15 15 15 15 15 15
17 16 16 15 14 15 14 13 13 12 12 12 12 11 11 11 12 12 12 12 12 12 12 12 12 11 12 11 12 12 12 13 13 13 14 14 14 14 14 14 15 15 15 15
17 17 17 16 15 15 15 13 12 12 12 12 12 11 12 12 12 12 12 12 13 12 12 12 12 12 12 12 11 12 12 12 12 12 13 13 13 13 14 14 14 14 14 14
17 17 17 16 16 15 14 14 13 13 13 13 12 12 12 12 13 13 12 13 13 13 13 13 13 12 12 12 12 12 11 11 11 12 12 12 12 12 13 13 13 13 13 13
16 16 16 17 16 15 14 14 13 14 14 14 14 14 13 14 15 15 13 13 13 13 13 13 13 13 13 12 12 12 12 11 11 11 11 11 11 12 12 12 12 12 12 12
15 16 17 16 17 16 15 14 13 13 15 14 13 14 14 15 17 16 13 13 13 13 13 13 13 13 13 13 13 13 12 12 11 11 11 11 11 12 12 12 12 12 12 12
16 16 16 17 17 16 15 13 13 15 16 14 13 13 13 14 14 13 13 13 13 14 14 14 14 14 13 13 13 13 12 12 11 11 11 11 11 11 11 11 11 11 11 11
17 17 16 16 17 16 14 13 14 16 14 13 13 13 12 12 12 13 13 13 13 14 14 14 14 14 14 13 13 13 12 12 11 11 11 11 11 11 11 11 11 11 11 11
16 16 17 17 16 14 13 14 13 13 13 13 13 12 12 12 13 13 13 13 13 14 14 15 14 14 14 14 13 13 12 12 12 11 11 11 11 11 11 11 11 11 11 11
16 14 15 15 15 14 13 12 12 12 12 12 12 12 12 12 12 13 13 13 14 14 14 15 15 15 14 14 14 13 13 12 12 12 11 11 11 11 11 11 11 10 10 10
16 15 15 16 15 13 13 13 12 12 12 12 12 12 12 12 12 12 13 13 14 14 14 15 15 15 15 15 14 14 13 13 12 12 12 11 11 11 10 10 10 10 10 10
15 15 16 17 16 16 15 13 12 12 12 12 12 12 12 12 12 12 12 13 14 14 15 15 15 15 15 15 15 14 14 13 13 12 12 11 11 11 10 10 10 10 10 10
Wind_Speed
1 0 3 5 4 5 6 7 8 6 3 5 5 4 2 5 7 9 10 11 11 12 11 9 9 10 12 14 17 17 17 17 14 12 12 11 10 9 8 8 10 12 12 11
2 4 6 4 3 4 5 8 7 5 3 6 7 6 1 3 7 9 11 12 13 15 14 13 11 9 10 13 16 18 19 17 16 12 12 10 10 8 8 7 9 11 12 12
5 6 5 4 6 6 5 6 8 9 8 7 8 9 6 3 4 8 11 12 14 15 16 16 14 12 10 11 14 15 17 17 16 13 9 8 7 5 5 6 6 9 11 11
5 6 5 6 8 9 6 7 10 11 11 10 7 11 6 1 2 9 13 14 15 16 15 15 15 13 11 9 9 12 13 15 14 13 11 10 6 4 3 3 4 6 8 9
5 8 9 9 10 10 9 12 12 12 13 15 12 12 5 2 6 12 15 15 15 15 15 15 14 13 11 9 6 4 7 10 12 12 12 10 6 4 2 1 2 3 5 7
7 6 9 10 7 7 11 13 12 11 11 14 13 12 3 5 10 14 15 16 16 15 15 14 13 11 9 8 5 3 6 9 11 12 13 13 10 7 3 0 1 2 3 4
3 7 7 10 11 9 12 12 7 7 8 9 4 5 4 8 10 13 15 16 15 14 14 13 12 10 9 8 7 7 9 10 11 12 12 13 11 8 3 1 2 3 4 4
6 5 9 10 10 10 10 9 6 6 7 6 4 1 6 9 12 14 15 15 15 14 13 12 11 8 7 7 7 9 10 11 10 10 10 10 9 5 3 1 3 5 4 4
7 5 6 8 9 9 10 8 7 8 9 8 3 2 3 14 18 19 19 18 16 15 13 11 10 8 7 8 9 9 11 11 11 10 9 8 6 4 3 4 6 5 5 4
6 4 6 6 6 10 8 8 6 4 5 5 1 3 8 18 20 20 19 18 16 15 13 11 9 8 8 8 8 9 9 9 8 7 5 4 3 4 4 5 7 6 5 5
5 4 4 6 10 13 10 8 6 5 4 4 2 3 9 14 15 16 17 16 15 14 13 11 9 9 8 8 8 8 7 6 4 3 3 3 3 4 4 5 6 6 5 6
4 4 3 5 5 8 8 8 6 4 4 3 2 3 9 12 13 14 16 15 15 15 14 12 11 11 10 10 9 7 6 4 2 1 1 2 3 4 5 6 6 6 6 5
3 4 1 3 3 9 8 11 7 3 2 3 3 3 10 14 16 16 16 15 15 16 15 15 14 13 12 11 10 9 8 6 4 2 2 2 2 3 3 3 3 3 5 5
2 6 7 5 4 6 8 13 12 6 4 4 5 7 13 17 17 17 16 15 14 15 15 15 14 13 12 11 11 10 9 7 5 5 4 4 3 3 2 2 1 2 2 3
1 6 9 9 6 7 11 13 13 13 8 6 5 6 10 14 13 12 13 13 15 15 16 15 15 13 13 12 12 11 11 10 9 8 7 7 6 5 4 3 1 0 1 2
2 6 7 5 3 4 9 12 10 9 7 7 6 6 10 11 9 11 13 13 13 13 14 14 14 14 13 13 12 12 12 11 10 10 10 9 8 7 5 4 3 1 0 1
2 5 3 3 2 3 4 7 7 5 6 6 6 7 11 9 10 11 11 11 12 12 12 12 12 12 12 12 12 12 12 11 11 11 11 10 9 8 7 6 5 4 3 2
2 3 2 2 3 1 3 1 2 2 3 4 4 7 9 8 6 5 10 11 11 11 11 11 11 11 11 11 11 11 11 11 12 12 12 11 10 10 9 8 8 7 6 6
0 2 2 1 2 3 3 3 2 1 2 3 6 8 10 9 1 7 12 12 10 10 9 9 9 9 10 10 10 10 11 12 12 12 12 11 11 10 10 10 9 8 7 7
3 1 3 3 2 2 5 5 2 3 1 2 5 8 10 9 5 9 14 13 11 10 8 8 8 9 9 9 8 9 10 11 11 11 11 10 10 10 10 10 9 8 7 7
3 2 3 3 2 2 6 6 4 2 4 2 3 6 8 8 8 10 12 10 9 8 8 8 8 7 8 8 8 9 10 10 9 8 9 9 9 9 9 8 8 8 7 7
3 3 4 3 3 3 9 7 5 2 3 1 3 5 7 8 9 10 10 10 9 9 8 8 7 7 6 6 7 7 7 6 6 6 7 8 8 8 7 8 8 8 7 7
5 4 2 4 0 4 8 5 1 1 1 1 3 5 7 8 9 10 11 10 10 9 9 8 8 7 6 5 5 6 5 4 4 5 5 6 6 7 7 8 8 7 7 7
5 4 4 5 6 7 7 6 5 4 2 2 4 5 6 7 9 10 10 10 10 10 9 9 8 7 7 6 4 4 3 2 3 4 5 5 6 6 7 6 6 7 7 7
6 8 6 6 5 7 9 9 8 5 3 3 3 3 5 7 8 9 9 10 9 9 9 8 8 8 8 6 5 3 2 2 3 4 4 5 6 5 5 6 5 6 7 7
8 9 7 6 8 8 9 12 10 7 5 3 2 3 4 5 7 9 9 9 9 9 9 9 8 8 7 6 5 3 1 2 2 4 4 4 5 5 5 5 6 5 5 7
Wind_Direction
51 39 15 357 340 311 300 285 282 292 328 295 276 280 10 42 36 25 15 7 1 353 343 334 314 290 267 249 235 224 215 207 200 195 196 193 196 199 203 208 211 213 218 220
183 51 20 12 359 310 297 287 288 290 309 292 279 274 189 73 47 29 15 6 359 351 348 346 333 311 277 255 243 231 218 208 200 194 194 193 191 197 198 204 213 218 223 224
59 34 20 14 10 332 311 314 310 303 299 262 272 256 199 143 65 30 16 5 359 353 346 344 340 331 309 273 251 238 224 209 197 185 178 168 161 161 175 201 214 222 227 228
68 36 18 17 18 346 313 341 312 295 284 272 256 272 220 227 20 14 5 0 356 351 346 342 341 339 331 308 270 244 223 207 186 171 166 163 166 162 178 189 208 220 225 229
66 35 27 22 10 353 334 321 300 285 275 272 255 259 239 50 360 358 356 353 351 349 346 343 343 342 341 335 313 244 203 178 164 160 155 139 120 103 69 47 230 229 225 227
79 58 33 9 353 356 331 310 285 260 259 257 254 249 243 28 356 347 348 348 348 348 348 346 348 351 356 4 21 82 129 134 141 141 137 129 123 112 101 358 248 231 221 221
68 65 34 5 349 349 348 333 300 265 244 256 280 253 75 28 3 351 347 345 346 348 350 350 352 357 8 21 41 80 105 114 125 129 129 125 121 119 130 200 248 241 227 218
349 23 28 16 7 340 346 340 319 295 286 298 289 230 88 23 7 359 353 348 346 350 354 353 356 6 16 30 56 80 93 99 107 116 118 116 118 125 136 206 242 236 228 215
355 16 44 29 21 4 344 344 325 292 284 277 254 98 73 7 1 358 355 351 349 349 355 359 5 16 29 44 61 81 93 97 101 103 103 107 123 143 170 212 230 230 218 202
346 347 33 18 4 23 4 335 314 302 301 282 279 40 1 351 348 348 350 349 349 350 359 5 11 22 38 55 64 69 83 93 98 102 114 124 153 188 205 223 225 215 205 192
342 349 38 42 23 3 0 357 338 308 301 306 320 42 7 344 342 345 348 352 358 358 7 10 19 25 37 49 54 57 61 70 84 98 114 138 177 207 216 220 216 203 191 188
359 341 49 77 59 20 17 359 340 333 343 332 325 30 1 349 355 360 360 3 7 10 16 21 30 31 37 36 31 28 25 29 33 71 154 171 186 205 208 206 202 193 186 186
9 348 5 135 61 20 16 13 7 335 339 2 358 6 359 5 10 9 8 12 17 18 22 27 30 31 32 29 21 11 7 7 11 39 115 133 148 163 172 171 174 187 185 185
11 50 56 67 43 10 17 23 27 34 30 36 24 4 360 3 5 5 6 14 21 25 28 29 31 31 30 29 28 25 25 25 38 58 68 69 68 67 80 92 129 174 196 204
67 92 97 101 92 58 45 33 38 46 39 39 18 18 358 350 353 1 8 18 26 29 31 31 33 33 32 33 36 36 35 36 46 56 55 51 53 51 49 54 52 131 237 244
83 129 134 127 122 58 51 34 33 37 27 19 27 32 349 342 358 12 17 23 28 29 32 34 37 36 34 35 37 41 42 43 49 53 50 47 50 49 46 46 41 45 50 251
142 159 171 128 159 203 52 24 22 32 25 8 9 344 332 346 360 9 10 17 24 27 30 34 36 36 35 36 36 41 44 48 52 54 53 50 53 54 52 55 57 53 55 55
160 162 163 145 190 104 82 56 323 327 24 18 348 334 337 332 332 16 20 15 18 19 23 26 29 32 34 36 39 45 49 51 53 53 52 51 53 55 56 57 56 53 54 55
7 191 174 181 129 126 173 191 235 298 47 12 354 355 353 336 215 60 26 10 5 5 7 13 16 24 32 32 32 43 50 52 52 50 50 51 53 53 53 54 52 50 54 56
97 200 213 199 206 159 147 144 171 240 137 48 353 357 358 358 47 27 359 353 354 355 359 1 7 19 27 27 27 40 48 50 49 47 49 50 49 48 48 48 46 48 53 54
189 183 207 210 209 141 144 149 183 221 93 72 359 355 358 8 2 339 339 348 349 349 350 350 359 12 15 15 24 39 45 48 47 48 49 48 47 46 43 43 42 43 47 48
225 206 201 210 214 181 154 168 201 67 87 56 0 358 351 344 343 347 350 353 353 353 352 349 351 0 5 9 18 39 43 42 45 48 47 46 43 39 38 40 39 38 36 41
221 232 234 226 70 96 170 187 166 156 213 1 353 349 340 338 345 349 351 354 355 352 350 348 344 344 357 13 13 25 37 35 43 48 44 42 46 45 39 39 40 39 37 37
197 199 222 231 216 193 192 199 201 213 249 307 321 327 332 337 343 347 349 351 352 351 349 343 339 340 350 359 359 4 15 17 30 42 40 41 45 53 55 49 46 45 38 35
204 188 212 224 189 185 204 205 199 201 224 259 298 322 335 338 345 347 346 349 348 345 343 340 338 335 334 339 344 348 350 350 20 43 50 51 55 58 64 67 51 48 52 32
198 195 197 210 189 186 188 190 191 196 208 230 280 320 341 343 343 344 345 346 344 342 342 340 339 333 332 336 338 344 329 321 3 42 49 51 56 61 64 79 96 79 53 42
Height
1518 1517 1519 1519 1518 1518 1517 1517 1516 1513 1513 1513 1511 1512 1514 1517 1517 1516 1514 1513 1512 1511 1509 1507 1506 1505 1506 1508 1510 1512 1514 1516 1519 1521 1523 1525 1528 1530 1532 1533 1535 1536 1539 1541
1516 1521 1522 1521 1520 1518 1518 1518 1516 1513 1513 1513 1511 1511 1513 1516 1517 1517 1516 1514 1512 1509 1506 1504 1502 1501 1501 1501 1503 1505 1508 1510 1512 1515 1518 1521 1525 1527 1529 1531 1532 1534 1536 1538
1521 1526 1523 1521 1520 1519 1519 1521 1520 1519 1514 1511 1511 1510 1510 1513 1516 1517 1516 1514 1512 1509 1505 1502 1499 1497 1496 1495 1496 1498 1501 1504 1506 1509 1513 1517 1520 1523 1525 1528 1530 1531 1533 1534
1524 1527 1525 1523 1525 1524 1522 1522 1522 1520 1517 1511 1510 1513 1505 1509 1512 1515 1515 1513 1511 1508 1505 1501 1497 1494 1491 1490 1490 1491 1494 1497 1500 1502 1506 1511 1515 1519 1522 1525 1527 1528 1530 1531
1529 1530 1529 1530 1531 1529 1526 1524 1521 1517 1515 1512 1507 1511 1503 1509 1514 1516 1516 1514 1511 1508 1504 1500 1496 1492 1489 1486 1485 1486 1488 1491 1494 1497 1500 1504 1509 1513 1518 1521 1524 1526 1527 1527
1532 1534 1535 1535 1532 1531 1527 1521 1514 1512 1512 1515 1504 1508 1511 1520 1523 1520 1517 1515 1511 1508 1504 1500 1496 1492 1488 1485 1483 1483 1484 1486 1489 1492 1495 1498 1503 1507 1513 1518 1521 1523 1524 1524
1532 1535 1538 1537 1532 1530 1528 1526 1522 1519 1517 1513 1505 1510 1526 1528 1526 1524 1520 1516 1512 1508 1504 1500 1496 1492 1489 1486 1484 1483 1483 1485 1487 1489 1492 1494 1498 1502 1508 1514 1518 1521 1522 1522
1537 1538 1541 1541 1540 1538 1533 1533 1538 1538 1528 1520 1515 1519 1532 1530 1528 1526 1522 1517 1513 1508 1505 1501 1497 1493 1490 1488 1486 1485 1485 1485 1487 1489 1491 1493 1497 1501 1505 1511 1517 1520 1521 1522
1541 1542 1543 1545 1544 1541 1538 1536 1536 1537 1529 1528 1521 1526 1530 1529 1528 1526 1522 1518 1513 1509 1505 1501 1498 1494 1492 1490 1489 1488 1488 1488 1489 1491 1493 1496 1499 1502 1505 1511 1516 1519 1520 1521
1543 1544 1545 1547 1544 1545 1546 1544 1539 1540 1540 1534 1527 1534 1543 1537 1534 1530 1525 1520 1515 1510 1506 1502 1499 1496 1494 1493 1492 1492 1492 1493 1493 1494 1497 1500 1502 1505 1508 1512 1515 1517 1520 1520
1545 1543 1546 1548 1552 1555 1552 1550 1547 1543 1542 1545 1542 1550 1550 1547 1542 1536 1530 1523 1517 1512 1508 1504 1501 1498 1496 1496 1495 1495 1496 1497 1498 1499 1501 1503 1505 1507 1510 1512 1514 1517 1518 1519
1549 1545 1547 1554 1557 1557 1556 1556 1553 1553 1549 1547 1550 1559 1554 1549 1544 1538 1532 1526 1520 1515 1510 1507 1504 1501 1499 1499 1499 1499 1500 1500 1501 1502 1503 1505 1507 1509 1510 1512 1514 1516 1517 1518
1551 1548 1548 1552 1558 1560 1560 1557 1554 1553 1553 1554 1556 1563 1554 1550 1545 1540 1534 1529 1523 1518 1514 1510 1507 1505 1503 1503 1503 1502 1502 1503 1503 1504 1505 1507 1508 1510 1511 1512 1514 1515 1516 1517
1554 1553 1557 1567 1571 1568 1565 1561 1556 1553 1557 1561 1565 1563 1556 1552 1547 1542 1537 1532 1528 1524 1520 1517 1513 1511 1509 1508 1507 1506 1505 1504 1504 1505 1506 1507 1508 1509 1510 1511 1513 1513 1514 1516
1554 1558 1562 1567 1568 1567 1567 1566 1563 1562 1565 1566 1567 1563 1561 1556 1552 1548 1543 1538 1534 1530 1526 1523 1520 1518 1515 1513 1511 1509 1508 1507 1506 1507 1507 1508 1508 1509 1509 1510 1511 1512 1513 1514
1556 1559 1562 1566 1567 1566 1566 1568 1567 1567 1567 1566 1562 1563 1562 1557 1553 1550 1546 1543 1540 1536 1533 1530 1527 1524 1521 1519 1516 1514 1511 1510 1509 1508 1508 1508 1508 1509 1509 1509 1510 1510 1511 1511
1557 1557 1558 1560 1564 1564 1566 1571 1571 1570 1569 1568 1567 1567 1562 1558 1555 1552 1549 1547 1544 1541 1538 1535 1533 1530 1527 1524 1521 1518 1516 1514 1512 1511 1510 1509 1509 1509 1509 1509 1509 1509 1509 1509
1557 1557 1557 1559 1562 1566 1572 1572 1573 1571 1569 1568 1567 1565 1562 1559 1556 1554 1552 1550 1547 1545 1542 1540 1537 1534 1532 1529 1526 1523 1521 1519 1517 1515 1513 1512 1512 1511 1510 1510 1509 1509 1508 1507
1561 1559 1558 1557 1559 1565 1569 1570 1570 1568 1566 1567 1565 1563 1561 1557 1555 1554 1553 1551 1550 1547 1545 1543 1540 1538 1535 1532 1530 1528 1526 1523 1521 1519 1517 1516 1515 1514 1513 1511 1510 1509 1508 1507
1563 1560 1557 1558 1556 1561 1563 1568 1570 1571 1564 1567 1566 1564 1561 1557 1551 1556 1555 1553 1551 1549 1547 1545 1543 1541 1538 1535 1533 1532 1529 1527 1524 1522 1521 1519 1518 1516 1515 1513 1512 1511 1510 1508
1558 1558 1557 1556 1555 1557 1563 1567 1571 1567 1564 1567 1566 1565 1564 1561 1561 1560 1557 1554 1552 1551 1549 1547 1545 1543 1540 1538 1536 1534 1532 1529 1527 1526 1524 1522 1521 1519 1517 1516 1514 1512 1511 1510
1554 1555 1555 1555 1555 1561 1562 1566 1565 1563 1565 1566 1566 1566 1565 1563 1562 1560 1558 1555 1553 1551 1550 1548 1546 1545 1542 1540 1538 1536 1534 1532 1530 1528 1526 1524 1523 1521 1519 1517 1516 1514 1512 1511
1555 1554 1552 1553 1556 1559 1561 1562 1564 1565 1565 1566 1566 1565 1565 1563 1562 1560 1558 1556 1554 1552 1550 1549 1547 1546 1544 1542 1540 1538 1536 1534 1532 1530 1528 1527 1525 1523 1521 1519 1517 1516 1514 1512
1552 1557 1555 1554 1554 1558 1560 1562 1563 1564 1565 1565 1565 1565 1564 1563 1562 1560 1558 1556 1554 1552 1550 1549 1547 1546 1545 1543 1541 1539 1537 1535 1534 1532 1530 1529 1527 1525 1523 1521 1519 1518 1516 1514
1547 1552 1551 1549 1551 1556 1558 1559 1561 1563 1564 1564 1564 1564 1563 1562 1561 1559 1558 1556 1554 1552 1550 1549 1547 1546 1545 1543 1542 1540 1538 1537 1536 1534 1532 1531 1529 1527 1525 1523 1522 1520 1519 1517
1543 1545 1545 1543 1546 1549 1552 1556 1559 1561 1563 1563 1564 1564 1563 1562 1561 1559 1558 1556 1553 1552 1550 1548 1547 1546 1544 1543 1542 1540 1538 1537 1537 1536 1534 1532 1531 1529 1527 1526 1525 1523 1522 1520